Weather History for KAKO - January, 2013

Change the Weather History Date:

Saturday, January 5, 2013

  Actual Average Record
Temperature  
Mean Temperature 25 °F 28 °F  
Max Temperature 37 °F 40 °F 69 °F (1956)
Min Temperature 12 °F 17 °F -24 °F (1942)
Degree Days  
Heating Degree Days 40    
Month to date heating degree days 228  
Cooling Degree Days 0    
Month to date cooling degree days 0  
Moisture  
Dew Point 12 °F    
Average Humidity 59    
Maximum Humidity 70    
Minimum Humidity 48    
Precipitation  
Precipitation 0.00 in 0.01 in 0.14 in (1949)
Month to date precipitation T 0.03  
Year to date precipitation T 0.03  
Sea Level Pressure  
Sea Level Pressure 30.30 in    
Wind  
Wind Speed 14 mph (WNW)    
Max Wind Speed 23 mph    
Max Gust Speed 26 mph    
Visibility 10 miles    
Events      
T = Trace of Precipitation, MM = Missing Value Source: NWS Daily Summary

Daily Weather History Graph

Daily Weather History Graph

Search for Another Location

Airport or City:

Trip Planner

Search our weather history database for the weather conditions in past years. The results will help you decide how hot, cold, wet, or windy it might be!

Date:

Astronomy

Jan. 05, 2013 Rise Set
Actual Time 7:15 AM MST 4:41 PM MST
Civil Twilight 6:45 AM MST 5:12 PM MST
Nautical Twilight 6:11 AM MST 5:45 PM MST
Astronomical Twilight 5:38 AM MST 6:18 PM MST
Moon 12:24 AM MST (1/5) 11:32 AM MST (1/5)
Length of Visible Light 10h 26m
Length of Day
9h 26m
Last Quarter, 43% of the Moon is Illuminated
Jan 5
Last Quarter
Jan 11
New
Jan 18
First Quarter
Jan 26
Full
Feb 3
Last Quarter

Hourly Weather History & Observations

Time (MST) Temp. Windchill Dew Point Humidity Pressure Visibility Wind Dir Wind Speed Gust Speed Precip Events Conditions
12:53 AM 18.0 °F 4.2 °F 9.0 °F 68% 30.11 in 10.0 mi WNW 13.8 mph - N/A   Clear
1:53 AM 16.0 °F 0.6 °F 7.0 °F 68% 30.11 in 10.0 mi West 16.1 mph - N/A   Clear
3:53 AM 14.0 °F -3.4 °F 5.0 °F 67% 30.15 in 10.0 mi WNW 19.6 mph - N/A   Clear
4:53 AM 15.1 °F -1.6 °F 5.0 °F 64% 30.18 in 10.0 mi WNW 18.4 mph - N/A   Clear
5:53 AM 17.1 °F 2.0 °F 7.0 °F 65% 30.21 in 10.0 mi NW 16.1 mph - N/A   Clear
6:53 AM 12.9 °F -3.4 °F 5.0 °F 71% 30.28 in 10.0 mi WNW 16.1 mph - N/A   Clear
7:53 AM 19.9 °F 6.2 °F 7.0 °F 57% 30.30 in 10.0 mi WNW 15.0 mph - N/A   Clear
8:53 AM 24.1 °F 12.0 °F 10.0 °F 55% 30.31 in 10.0 mi NNW 13.8 mph - N/A   Clear
9:53 AM 26.1 °F 16.2 °F 12.9 °F 58% 30.33 in 10.0 mi NW 10.4 mph - N/A   Clear
10:53 AM 28.9 °F 19.8 °F 15.1 °F 56% 30.32 in 10.0 mi WNW 10.4 mph - N/A   Clear
11:53 AM 30.9 °F 25.2 °F 18.0 °F 59% 30.31 in 10.0 mi WSW 5.8 mph - N/A   Clear
12:53 PM 37.0 °F 28.1 °F 19.9 °F 50% 30.28 in 10.0 mi North 15.0 mph - N/A   Clear
1:08 PM 37.4 °F 28.5 °F 21.2 °F 52% 30.18 in 10.0 mi North 15.0 mph - N/A   Clear
1:53 PM 36.0 °F 26.0 °F 21.0 °F 55% 30.30 in 10.0 mi North 17.3 mph - N/A   Clear
2:53 PM 36.0 °F 28.5 °F 21.0 °F 55% 30.33 in 10.0 mi North 10.4 mph - N/A   Clear
3:53 PM 33.1 °F 24.9 °F 21.0 °F 61% 30.35 in 10.0 mi NNW 10.4 mph - N/A   Clear
4:53 PM 30.0 °F 21.7 °F 17.1 °F 59% 30.37 in 10.0 mi NW 9.2 mph - N/A   Clear
5:53 PM 27.0 °F 18.0 °F 15.1 °F 61% 30.39 in 10.0 mi NW 9.2 mph - N/A   Clear
6:53 PM 21.9 °F 10.4 °F 9.0 °F 58% 30.44 in 10.0 mi West 11.5 mph - N/A   Clear
7:53 PM 24.1 °F 12.5 °F 9.0 °F 53% 30.40 in 10.0 mi NW 12.7 mph - N/A   Clear
8:53 PM 17.1 °F 5.8 °F 5.0 °F 59% 30.42 in 10.0 mi West 9.2 mph - N/A   Clear
9:53 PM 17.1 °F 5.8 °F 5.0 °F 59% 30.43 in 10.0 mi West 9.2 mph - N/A   Clear
10:53 PM 17.1 °F 7.6 °F 5.0 °F 59% 30.42 in 10.0 mi WSW 6.9 mph - N/A   Clear
11:53 PM 19.9 °F 9.3 °F 7.0 °F 57% 30.38 in 10.0 mi SSW 9.2 mph - N/A   Clear